STARLINK-34851

Last updated on Thu Dec 11 2025 00:02:06 GMT+0000 (Coordinated Universal Time)

1 66447U 25259AB 25344.23731622 .00104412 00000+0 17574-2 0 9991 2 66447 42.9984 61.8661 0001321 284.8329 75.2384 15.50651186 5671
UTC large
Height (km)
Speed (km/s)
/
Latitude / Longitude
Inclination (degrees)
Orbital Period (minutes)
Azimuth
Elevation
Range (km)
Doppler Factor

Next 0 passes for location: London (51.5072 / 0.1276)

Sorry there are no passes over London.